カタログに戻る

GLOBALSTAR M029

運用中通信LEO
NORAD 25963·PAYLOAD·🇺🇸 United States

打ち上げ Nov 22, 1999 から Baikonur Cosmodrome

Loading…

次のパス (今後24時間)

TLE

最新Source: Space-Track

元期: Sep 14, 2026, 10:01 UTC

1 25963U 99062C   26257.41775846 -.00000058  00000-0  34691-3 0  9995
2 25963  51.9814 305.9576 0002286 283.9383  89.1834 11.99913537223653

AllMySatでGLOBALSTAR M029をリアルタイム追跡

Download on the App Store